When you browse on this site, cookies collect data to enhance your experience and personalize the content and advertising you see.
Visit our Privacy Policy to learn more. By continuing to use the site, you agree to this use of cookies and data.
  • In Hungary
  • List of Countries
  • For 7 days
  • Water Temperature
  • Weather Map
  • News
  • Weather Widgets
  • user-avatar
    Login

    Hourly Weather Mayachnaya

    Today, 5 June, Friday

    Time Temperature Precipitation Wind Pressure Humidity
    00:00 +20°C° 0 mm 8 mps 750 mmHg 42%
    01:00 +20°C° 0 mm 8 mps 751 mmHg 43%
    02:00 +18°C° 0 mm 7 mps 751 mmHg 45%
    03:00 +17°C° 0 mm 7 mps 751 mmHg 47%
    04:00 +17°C° 0 mm 7 mps 751 mmHg 49%
    05:00 +17°C° 0 mm 7 mps 752 mmHg 50%
    06:00 +17°C° 0 mm 8 mps 752 mmHg 51%
    07:00 +17°C° 0 mm 8 mps 752 mmHg 53%
    08:00 +18°C° 0 mm 8 mps 753 mmHg 50%
    09:00 +20°C° 0 mm 8 mps 753 mmHg 47%
    10:00 +22°C° 0 mm 8 mps 753 mmHg 45%
    11:00 +22°C° 0 mm 8 mps 753 mmHg 42%
    12:00 +23°C° 0 mm 8 mps 753 mmHg 40%
    13:00 +24°C° 0 mm 8 mps 753 mmHg 38%
    14:00 +26°C° 0 mm 7 mps 753 mmHg 38%
    15:00 +26°C° 0 mm 7 mps 753 mmHg 37%
    16:00 +26°C° 0 mm 7 mps 753 mmHg 37%
    17:00 +24°C° 0 mm 6 mps 752 mmHg 40%
    18:00 +25°C° 0 mm 5 mps 752 mmHg 43%
    19:00 +23°C° 0 mm 4 mps 752 mmHg 46%
    20:00 +22°C° 0 mm 5 mps 752 mmHg 44%
    21:00 +21°C° 0 mm 6 mps 753 mmHg 41%
    22:00 +20°C° 0 mm 7 mps 753 mmHg 38%
    23:00 +20°C° 0 mm 7 mps 753 mmHg 38%

    Tomorrow, 6 June, Saturday

    Time Temperature Precipitation Wind Pressure Humidity
    00:00 +19°C° 0 mm 6 mps 753 mmHg 37%
    01:00 +19°C° 0 mm 6 mps 753 mmHg 37%
    02:00 +17°C° 0 mm 5 mps 753 mmHg 38%
    03:00 +18°C° 0 mm 4 mps 753 mmHg 39%
    04:00 +17°C° 0 mm 3 mps 754 mmHg 40%
    05:00 +17°C° 0 mm 4 mps 754 mmHg 43%
    06:00 +17°C° 0 mm 4 mps 754 mmHg 46%
    07:00 +17°C° 0 mm 4 mps 754 mmHg 49%
    08:00 +16°C° 0 mm 5 mps 754 mmHg 50%
    09:00 +16°C° 0 mm 5 mps 754 mmHg 51%
    10:00 +17°C° 0 mm 5 mps 754 mmHg 52%
    11:00 +17°C° 0.2 mm 4 mps 754 mmHg 54%
    12:00 +17°C° 0.2 mm 4 mps 754 mmHg 56%
    13:00 +17°C° 0.2 mm 3 mps 754 mmHg 58%
    14:00 +18°C° 0.4 mm 4 mps 754 mmHg 58%
    15:00 +18°C° 0.4 mm 4 mps 754 mmHg 59%
    16:00 +17°C° 0.4 mm 5 mps 754 mmHg 59%
    17:00 +17°C° 0.1 mm 4 mps 754 mmHg 63%
    18:00 +17°C° 0.1 mm 4 mps 754 mmHg 67%
    19:00 +15°C° 0.1 mm 4 mps 754 mmHg 71%
    20:00 +15°C° 0 mm 5 mps 754 mmHg 68%
    21:00 +15°C° 0 mm 5 mps 754 mmHg 66%
    22:00 +15°C° 0 mm 6 mps 755 mmHg 63%
    23:00 +15°C° 0 mm 5 mps 754 mmHg 62%

    Day after tomorrow, 7 June, Sunday

    Time Temperature Precipitation Wind Pressure Humidity
    00:00 +15°C° 0 mm 4 mps 754 mmHg 60%
    01:00 +16°C° 0 mm 3 mps 754 mmHg 59%
    02:00 +16°C° 0 mm 3 mps 754 mmHg 61%
    03:00 +14°C° 0 mm 3 mps 754 mmHg 62%
    04:00 +13°C° 0 mm 3 mps 754 mmHg 63%
    05:00 +16°C° 0 mm 3 mps 754 mmHg 60%
    06:00 +17°C° 0 mm 4 mps 754 mmHg 58%
    07:00 +17°C° 0 mm 5 mps 754 mmHg 55%
    08:00 +20°C° 0 mm 5 mps 754 mmHg 50%
    09:00 +22°C° 0 mm 6 mps 755 mmHg 46%
    10:00 +23°C° 0 mm 6 mps 755 mmHg 41%
    11:00 +24°C° 0 mm 6 mps 755 mmHg 38%
    12:00 +26°C° 0 mm 5 mps 754 mmHg 35%
    13:00 +27°C° 0 mm 5 mps 754 mmHg 33%
    14:00 +27°C° 0 mm 5 mps 754 mmHg 32%
    15:00 +27°C° 0 mm 5 mps 754 mmHg 32%
    16:00 +27°C° 0 mm 5 mps 754 mmHg 32%
    17:00 +26°C° 0 mm 4 mps 754 mmHg 36%
    18:00 +25°C° 0 mm 4 mps 753 mmHg 40%
    19:00 +23°C° 0 mm 4 mps 753 mmHg 44%
    20:00 +22°C° 0 mm 4 mps 753 mmHg 45%
    21:00 +20°C° 0 mm 4 mps 753 mmHg 45%
    22:00 +19°C° 0 mm 4 mps 754 mmHg 46%
    23:00 +18°C° 0 mm 4 mps 754 mmHg 47%

    8 June, Monday

    Time Temperature Precipitation Wind Pressure Humidity
    00:00 +18°C° 0 mm 4 mps 754 mmHg 48%
    01:00 +17°C° 0 mm 4 mps 754 mmHg 49%
    02:00 +17°C° 0 mm 4 mps 754 mmHg 49%
    03:00 +15°C° 0 mm 4 mps 754 mmHg 49%
    04:00 +15°C° 0 mm 4 mps 754 mmHg 49%
    05:00 +17°C° 0 mm 4 mps 754 mmHg 49%
    06:00 +19°C° 0 mm 5 mps 754 mmHg 49%
    07:00 +20°C° 0 mm 5 mps 755 mmHg 49%
    08:00 +22°C° 0 mm 6 mps 755 mmHg 43%
    09:00 +24°C° 0 mm 6 mps 755 mmHg 38%
    10:00 +27°C° 0 mm 7 mps 755 mmHg 33%
    11:00 +27°C° 0 mm 7 mps 755 mmHg 32%
    12:00 +28°C° 0 mm 7 mps 755 mmHg 31%
    13:00 +29°C° 0 mm 7 mps 755 mmHg 30%
    14:00 +29°C° 0 mm 6 mps 755 mmHg 31%
    15:00 +28°C° 0 mm 6 mps 755 mmHg 33%
    16:00 +28°C° 0 mm 5 mps 755 mmHg 34%
    17:00 +27°C° 0 mm 5 mps 755 mmHg 37%
    18:00 +27°C° 0 mm 5 mps 755 mmHg 40%
    19:00 +26°C° 0 mm 5 mps 755 mmHg 43%
    20:00 +23°C° 0 mm 5 mps 755 mmHg 45%
    21:00 +22°C° 0 mm 5 mps 755 mmHg 47%
    22:00 +20°C° 0 mm 4 mps 755 mmHg 49%
    23:00 +20°C° 0 mm 4 mps 756 mmHg 50%

    9 June, Tuesday

    Time Temperature Precipitation Wind Pressure Humidity
    00:00 +19°C° 0 mm 4 mps 756 mmHg 50%
    01:00 +18°C° 0 mm 4 mps 756 mmHg 51%
    02:00 +18°C° 0 mm 4 mps 756 mmHg 52%
    03:00 +18°C° 0 mm 3 mps 756 mmHg 52%
    04:00 +17°C° 0 mm 3 mps 756 mmHg 53%
    05:00 +19°C° 0 mm 4 mps 757 mmHg 52%
    06:00 +20°C° 0 mm 4 mps 757 mmHg 51%
    07:00 +21°C° 0 mm 4 mps 757 mmHg 49%
    08:00 +23°C° 0 mm 4 mps 757 mmHg 44%
    09:00 +26°C° 0 mm 5 mps 757 mmHg 38%
    10:00 +28°C° 0 mm 5 mps 757 mmHg 33%
    11:00 +29°C° 0 mm 5 mps 757 mmHg 32%
    12:00 +29°C° 0 mm 5 mps 757 mmHg 31%
    13:00 +29°C° 0 mm 5 mps 757 mmHg 31%
    14:00 +30°C° 0 mm 5 mps 757 mmHg 30%
    15:00 +30°C° 0 mm 4 mps 757 mmHg 30%
    16:00 +30°C° 0 mm 4 mps 757 mmHg 30%
    17:00 +29°C° 0 mm 4 mps 757 mmHg 34%
    18:00 +28°C° 0 mm 3 mps 756 mmHg 38%
    19:00 +28°C° 0 mm 3 mps 756 mmHg 42%
    20:00 +26°C° 0 mm 3 mps 756 mmHg 45%
    21:00 +24°C° 0 mm 3 mps 756 mmHg 48%
    22:00 +22°C° 0 mm 4 mps 756 mmHg 52%
    23:00 +21°C° 0 mm 4 mps 757 mmHg 54%

    10 June, Wednesday

    Time Temperature Precipitation Wind Pressure Humidity
    00:00 +20°C° 0 mm 4 mps 757 mmHg 57%
    01:00 +20°C° 0 mm 4 mps 757 mmHg 59%
    02:00 +19°C° 0 mm 4 mps 757 mmHg 59%
    03:00 +19°C° 0 mm 3 mps 757 mmHg 60%
    04:00 +18°C° 0 mm 3 mps 757 mmHg 60%
    05:00 +20°C° 0 mm 3 mps 757 mmHg 56%
    06:00 +21°C° 0 mm 3 mps 757 mmHg 53%
    07:00 +24°C° 0 mm 2 mps 757 mmHg 49%
    08:00 +25°C° 0 mm 2 mps 757 mmHg 44%
    09:00 +27°C° 0 mm 2 mps 757 mmHg 38%
    10:00 +29°C° 0 mm 2 mps 757 mmHg 32%
    11:00 +30°C° 0 mm 2 mps 757 mmHg 30%
    12:00 +31°C° 0 mm 1 mps 757 mmHg 27%
    13:00 +31°C° 0 mm 1 mps 757 mmHg 25%
    14:00 +31°C° 0 mm 2 mps 757 mmHg 27%
    15:00 +31°C° 0 mm 3 mps 756 mmHg 29%
    16:00 +30°C° 0 mm 3 mps 756 mmHg 31%
    17:00 +30°C° 0 mm 3 mps 756 mmHg 35%
    18:00 +29°C° 0 mm 3 mps 756 mmHg 39%
    19:00 +28°C° 0 mm 3 mps 756 mmHg 44%
    20:00 +26°C° 0 mm 2 mps 756 mmHg 44%
    21:00 +25°C° 0 mm 2 mps 756 mmHg 44%
    22:00 +24°C° 0 mm 2 mps 756 mmHg 44%
    23:00 +23°C° 0 mm 2 mps 756 mmHg 46%
    Show more